Wind_Speed
24 24 25 25 26 26 27 28 29 29 31 33 33 33 34 37 38 42 46 48 50 51 52 54 54 54 55 55 55 55 53 52 51 49 48 47 46 45 44 42 41 39 38 37
23 23 23 24 23 24 25 26 27 28 29 31 32 32 32 35 37 39 44 47 49 51 53 54 53 54 55 55 55 54 53 52 51 50 49 48 47 46 44 43 42 41 39 37
23 23 23 22 21 22 23 25 25 27 28 29 30 30 29 32 36 38 42 45 48 50 52 54 53 54 54 54 54 54 53 53 52 51 50 49 48 47 45 43 42 41 40 38
24 23 23 22 21 22 23 24 25 26 27 27 27 28 27 29 34 36 40 43 46 49 51 53 54 54 54 53 53 55 54 53 53 52 51 49 48 46 45 44 43 42 41 39
25 24 23 22 21 22 22 24 25 25 26 26 25 27 25 26 31 34 38 41 44 47 51 52 54 54 53 54 54 55 54 53 53 53 51 50 49 47 46 45 44 43 42 40
25 25 24 23 22 22 23 23 25 26 26 28 25 27 24 26 29 32 36 40 43 45 50 51 53 54 54 54 55 55 55 54 53 52 51 50 49 48 47 46 45 44 42 41
26 26 24 24 22 23 24 24 25 26 27 27 26 27 26 26 28 31 35 38 42 44 47 50 52 53 54 54 54 55 55 54 53 52 52 50 49 48 48 46 45 44 43 42
27 25 24 23 22 23 24 25 25 26 27 27 26 27 27 27 28 30 33 37 41 44 46 48 50 52 54 54 54 55 55 53 52 52 51 51 50 49 48 47 46 45 44 43
27 25 23 23 23 23 24 24 25 27 28 28 27 28 27 27 28 30 33 37 40 44 45 47 50 52 54 55 55 55 55 53 53 52 52 51 50 49 48 48 47 46 45 44
27 27 24 24 23 23 24 24 26 27 28 28 27 27 27 27 30 30 32 36 40 43 45 46 49 51 53 55 55 56 56 56 53 52 51 51 49 49 48 48 47 46 45 44
27 27 26 25 24 24 24 24 26 28 29 30 30 27 26 27 30 32 33 36 39 41 44 46 49 51 52 54 55 56 56 55 54 52 51 51 50 50 50 49 47 46 46 45
27 27 27 26 25 24 25 25 26 28 29 31 33 29 27 27 29 32 33 36 37 41 43 45 48 51 53 55 56 56 56 54 53 52 52 52 51 51 51 49 48 47 46 46
28 28 28 27 26 26 26 26 27 28 30 32 33 31 28 28 28 31 33 35 37 40 43 43 46 49 53 56 56 57 56 54 53 52 52 52 52 51 51 50 48 48 47 47
30 30 29 28 27 27 27 27 27 28 30 32 33 31 29 30 30 31 33 35 37 39 42 43 45 47 51 55 55 57 56 55 55 53 53 53 52 51 50 50 50 50 49 48
31 31 30 29 29 28 29 28 28 29 30 32 30 31 30 32 32 33 34 36 37 40 42 43 44 47 50 53 54 55 56 56 55 55 54 54 53 52 51 50 50 51 50 49
31 32 32 31 30 30 30 28 29 29 29 30 30 29 30 32 33 34 35 37 38 41 43 44 45 46 48 51 54 55 55 55 56 56 55 54 53 53 52 52 51 51 50 49
32 32 33 32 30 30 28 27 28 28 28 29 28 26 28 31 33 34 36 38 39 41 43 45 45 47 48 50 53 55 55 54 54 54 55 55 54 54 53 53 52 51 50 49
33 33 33 32 31 30 27 27 28 29 28 28 28 27 28 29 31 33 36 39 39 41 43 46 47 48 48 50 52 55 56 55 55 55 55 55 55 54 53 53 52 51 50 49
32 32 33 33 32 30 27 26 27 28 28 28 29 29 29 29 30 31 34 38 40 41 43 45 47 49 48 49 51 53 54 55 55 55 54 54 55 55 53 52 51 51 50 49
32 32 32 32 33 31 27 27 28 29 27 27 29 30 30 30 30 31 33 35 39 41 43 45 46 48 49 49 50 51 53 55 55 55 55 54 55 55 55 53 52 51 50 49
32 32 32 32 33 32 28 28 28 28 27 27 28 28 29 30 30 30 32 34 36 38 41 44 45 47 48 49 50 50 51 53 55 54 54 54 54 54 54 53 53 52 51 50
32 33 34 34 34 32 30 30 29 28 28 27 28 29 29 29 29 30 31 32 35 37 39 41 43 46 48 49 50 50 51 52 54 54 53 54 54 53 53 52 52 51 51 51
34 34 35 35 33 31 31 31 30 30 29 29 29 29 30 29 30 31 31 32 33 35 39 41 42 44 47 49 50 51 51 52 53 53 53 53 54 54 53 52 51 50 49 49
34 34 35 34 31 31 31 31 31 31 31 30 30 30 30 30 30 31 31 32 33 34 37 40 42 43 46 48 49 51 51 52 52 52 53 53 53 53 52 51 50 50 48 48
32 33 33 33 31 31 31 31 31 30 29 29 30 30 30 30 31 32 32 33 34 35 36 38 40 42 44 46 49 49 49 51 52 52 52 52 52 52 51 50 49 49 48 46
31 33 33 32 30 31 30 30 30 29 28 29 29 29 29 29 30 31 32 32 34 35 36 37 39 40 41 43 46 48 47 48 49 50 51 51 50 50 50 49 48 47 47 45
Wind_Direction
300 297 295 293 285 277 275 268 261 254 250 250 249 248 243 240 236 232 229 226 223 220 217 216 215 215 214 215 215 215 215 215 216 218 220 220 220 221 221 222 222 223 225 226
303 299 297 295 287 277 273 271 264 256 252 251 249 247 242 240 235 230 227 225 222 219 216 215 215 215 214 215 215 214 215 215 217 218 220 221 221 221 222 222 222 224 225 227
306 300 296 294 288 280 273 271 267 263 256 253 254 251 245 237 232 228 225 223 221 219 216 215 214 214 215 215 215 215 215 216 216 218 219 220 221 222 223 223 223 224 226 228
313 303 293 291 288 282 274 271 268 266 261 259 257 255 242 236 231 227 224 222 220 219 216 215 214 214 215 215 214 215 216 216 216 217 219 220 222 223 223 223 224 225 226 228
314 306 294 290 288 283 277 272 270 269 264 262 256 255 243 236 231 226 224 222 220 218 217 216 215 215 216 215 214 215 216 216 216 217 218 220 222 223 223 224 224 225 227 229
311 305 297 291 287 284 280 274 270 270 266 263 257 253 243 234 229 225 223 222 220 218 217 217 217 216 216 215 214 215 216 216 217 217 217 219 221 223 224 225 225 227 228 230
312 305 298 291 288 282 280 274 272 273 270 265 258 252 246 234 229 225 222 222 221 219 218 218 218 216 216 216 214 215 215 216 217 218 219 220 222 223 225 226 226 227 229 231
314 307 299 294 290 282 278 275 269 270 270 267 259 254 249 236 229 225 223 222 221 220 219 218 218 217 215 216 215 215 215 216 218 219 219 220 223 224 226 227 227 229 230 231
313 307 299 294 291 285 278 274 268 267 269 270 264 257 249 236 229 225 223 221 220 220 219 219 219 218 216 216 216 216 216 217 218 219 220 221 223 225 227 228 229 230 231 232
311 305 301 296 290 284 280 273 270 268 268 269 267 260 251 240 233 228 226 224 221 221 221 220 219 218 217 217 217 216 217 218 218 219 220 222 224 226 228 229 230 230 231 233
310 306 303 300 293 287 280 274 269 267 266 265 265 260 249 244 237 232 229 228 224 221 222 222 220 219 218 218 218 217 217 219 219 220 221 223 224 226 228 230 230 231 231 233
307 305 303 300 295 288 282 277 270 266 265 263 263 260 249 246 239 236 231 229 227 224 222 223 223 221 221 220 220 220 219 220 220 220 222 223 225 227 228 230 231 232 232 234
306 304 303 300 296 289 283 278 273 268 265 264 261 258 250 246 242 237 234 230 227 225 224 224 223 222 222 221 221 220 221 221 222 222 222 223 225 228 229 229 230 232 234 236
304 303 300 296 294 290 285 280 275 270 267 266 262 257 247 246 243 239 235 232 229 226 224 225 224 223 223 222 223 222 222 223 224 224 224 224 225 227 228 230 231 233 235 237
302 301 299 295 293 289 285 282 276 272 268 267 263 256 247 246 244 240 236 233 230 228 225 224 225 225 224 224 224 223 224 224 225 224 225 225 226 227 228 230 232 234 236 238
300 300 298 295 291 288 286 282 276 273 271 268 265 257 249 246 243 240 236 234 232 229 227 226 226 225 225 224 224 224 225 225 224 224 225 226 227 228 230 231 232 235 237 239
297 298 297 296 292 288 286 283 277 273 271 268 264 257 249 245 243 242 238 235 233 231 230 228 227 226 227 227 226 225 225 226 226 224 225 226 227 229 230 232 234 236 238 240
295 294 295 295 292 289 290 283 278 275 271 267 262 256 252 248 245 245 243 238 235 233 231 229 229 228 227 227 228 228 228 228 227 226 227 227 227 228 230 232 234 237 239 241
294 293 292 292 291 290 289 283 279 276 270 264 260 257 254 251 248 247 245 241 237 235 234 231 229 228 228 228 227 228 228 229 227 227 227 228 228 229 230 232 234 237 239 241
291 291 291 291 290 291 292 285 279 276 270 262 260 257 254 252 250 248 246 244 239 236 234 232 229 228 228 227 227 227 227 227 227 228 228 229 230 229 230 232 234 237 239 241
287 288 289 290 288 289 290 286 281 276 272 265 261 258 256 254 252 249 247 245 242 237 235 232 230 227 227 227 227 226 226 226 226 227 228 229 230 230 231 232 234 236 238 240
286 287 288 288 287 288 286 283 281 277 272 268 264 260 257 255 252 251 248 246 243 239 236 233 230 228 227 227 227 226 226 226 226 226 227 229 230 230 231 232 234 235 237 239
283 285 286 286 287 285 283 282 279 275 272 268 265 262 259 257 254 252 250 247 243 240 238 234 231 229 228 227 227 227 227 227 226 227 227 229 230 230 231 232 233 235 236 239
283 283 284 285 285 282 281 282 278 275 272 268 264 262 260 257 255 252 250 247 244 241 238 235 232 230 229 228 228 228 228 228 227 227 228 229 230 230 231 233 234 235 238 240
284 284 284 284 284 281 281 280 279 276 272 267 264 262 261 258 255 252 250 247 245 243 241 237 235 232 230 228 228 227 227 227 226 226 226 227 229 229 231 233 235 236 239 240
283 282 283 284 283 282 282 279 278 275 270 267 266 264 261 259 256 253 249 246 244 243 242 238 235 233 231 229 228 227 226 225 225 226 226 226 227 228 230 231 233 235 237 239
Height
5610 5610 5607 5605 5604 5603 5604 5604 5605 5607 5607 5609 5611 5614 5618 5619 5622 5626 5631 5638 5645 5653 5661 5668 5676 5685 5693 5701 5710 5718 5726 5733 5740 5747 5753 5759 5765 5770 5776 5781 5786 5790 5794 5798
5605 5604 5603 5600 5598 5597 5597 5597 5598 5600 5600 5600 5603 5605 5608 5609 5612 5617 5622 5629 5636 5643 5651 5659 5668 5676 5684 5693 5701 5709 5717 5725 5732 5739 5746 5752 5757 5763 5768 5773 5778 5783 5787 5791
5601 5599 5596 5595 5593 5591 5591 5591 5591 5592 5593 5593 5594 5597 5600 5602 5604 5608 5613 5620 5626 5634 5642 5650 5659 5667 5675 5684 5693 5701 5709 5716 5724 5730 5736 5743 5749 5755 5761 5766 5771 5776 5780 5785
5596 5594 5592 5590 5588 5586 5586 5586 5585 5585 5585 5586 5588 5588 5594 5595 5598 5601 5606 5612 5619 5626 5634 5641 5650 5658 5667 5676 5684 5692 5700 5708 5715 5722 5729 5736 5743 5749 5755 5759 5764 5769 5773 5778
5592 5589 5587 5586 5584 5582 5581 5581 5580 5580 5579 5581 5583 5582 5588 5589 5592 5596 5601 5606 5612 5619 5626 5633 5641 5650 5658 5666 5675 5683 5691 5699 5706 5714 5721 5728 5735 5741 5746 5751 5756 5761 5766 5770
5588 5585 5582 5581 5579 5577 5576 5576 5575 5575 5575 5576 5578 5578 5581 5583 5586 5590 5595 5600 5606 5613 5620 5627 5634 5641 5649 5657 5666 5675 5683 5691 5698 5706 5713 5720 5727 5733 5738 5743 5749 5754 5758 5763
5584 5581 5578 5576 5574 5573 5572 5571 5570 5569 5569 5571 5572 5573 5576 5578 5581 5585 5589 5594 5600 5606 5612 5619 5626 5634 5642 5649 5658 5667 5675 5683 5691 5698 5705 5713 5719 5724 5730 5735 5740 5746 5751 5755
5578 5576 5573 5571 5570 5568 5567 5567 5567 5566 5565 5565 5566 5568 5572 5573 5576 5579 5583 5588 5593 5599 5605 5611 5618 5626 5634 5642 5650 5658 5666 5675 5683 5690 5698 5704 5710 5716 5721 5727 5732 5738 5743 5747
5572 5571 5569 5567 5565 5564 5562 5561 5562 5561 5559 5559 5560 5562 5566 5568 5570 5573 5576 5581 5586 5591 5597 5603 5610 5618 5626 5634 5642 5650 5658 5667 5675 5682 5689 5696 5702 5708 5714 5719 5724 5729 5734 5738
5567 5565 5564 5562 5560 5559 5558 5556 5556 5555 5553 5553 5554 5557 5559 5561 5564 5567 5571 5574 5579 5585 5590 5596 5602 5609 5617 5625 5633 5641 5650 5658 5665 5673 5680 5687 5693 5699 5705 5710 5716 5721 5725 5729
5562 5560 5558 5556 5555 5553 5552 5551 5550 5548 5548 5548 5547 5553 5553 5555 5558 5561 5564 5568 5572 5578 5583 5588 5594 5601 5608 5616 5624 5633 5641 5649 5656 5664 5671 5678 5684 5690 5696 5701 5707 5712 5716 5721
5557 5554 5552 5551 5549 5547 5545 5545 5543 5543 5542 5541 5540 5546 5547 5549 5551 5554 5557 5560 5564 5569 5575 5581 5586 5593 5600 5608 5615 5623 5631 5639 5647 5654 5662 5669 5675 5681 5687 5693 5698 5703 5708 5712
5551 5548 5545 5544 5544 5541 5539 5538 5536 5535 5534 5533 5534 5539 5541 5542 5544 5546 5549 5552 5556 5561 5566 5572 5578 5584 5591 5598 5606 5614 5622 5629 5637 5644 5651 5659 5665 5672 5678 5684 5689 5694 5699 5703
5544 5542 5541 5539 5536 5532 5531 5530 5529 5527 5525 5525 5527 5529 5533 5533 5535 5538 5541 5544 5548 5553 5558 5563 5569 5575 5582 5589 5596 5604 5612 5620 5627 5634 5641 5649 5656 5662 5668 5674 5679 5685 5689 5694
5537 5535 5533 5531 5528 5525 5523 5523 5521 5518 5518 5517 5519 5520 5524 5525 5527 5529 5532 5535 5539 5544 5548 5554 5560 5566 5572 5579 5586 5594 5601 5610 5617 5624 5631 5639 5646 5652 5658 5664 5670 5675 5680 5685
5530 5527 5525 5523 5521 5517 5515 5515 5512 5510 5510 5509 5509 5511 5515 5515 5517 5520 5523 5526 5530 5535 5539 5545 5550 5556 5562 5569 5576 5583 5591 5599 5606 5613 5621 5628 5635 5641 5648 5654 5659 5664 5670 5675
5523 5519 5516 5515 5512 5509 5508 5508 5504 5503 5502 5501 5500 5504 5504 5506 5508 5511 5513 5517 5521 5525 5530 5535 5540 5546 5552 5558 5565 5572 5580 5588 5595 5603 5610 5617 5624 5631 5637 5643 5649 5654 5660 5664
5515 5511 5507 5505 5504 5500 5503 5498 5496 5494 5493 5492 5492 5494 5495 5497 5499 5501 5504 5508 5512 5516 5520 5525 5530 5536 5542 5548 5554 5561 5569 5576 5584 5592 5599 5606 5613 5620 5626 5632 5639 5644 5649 5654
5506 5502 5499 5496 5493 5491 5493 5490 5487 5485 5485 5485 5484 5485 5487 5488 5490 5493 5495 5497 5501 5505 5509 5514 5519 5525 5531 5537 5543 5550 5558 5565 5573 5581 5587 5595 5602 5609 5615 5622 5628 5633 5638 5643
5496 5493 5491 5487 5483 5482 5485 5481 5477 5477 5477 5477 5475 5476 5477 5479 5481 5484 5485 5487 5490 5494 5498 5503 5508 5514 5520 5526 5532 5539 5547 5554 5562 5569 5576 5583 5590 5597 5604 5611 5617 5622 5628 5633
5487 5484 5482 5478 5474 5473 5475 5471 5469 5469 5469 5467 5467 5467 5468 5469 5472 5474 5475 5477 5479 5483 5487 5492 5497 5503 5509 5515 5521 5528 5535 5543 5550 5557 5565 5571 5579 5586 5593 5599 5606 5611 5617 5622
5478 5475 5472 5469 5466 5468 5465 5462 5461 5460 5458 5458 5457 5458 5459 5460 5461 5463 5465 5467 5469 5472 5476 5481 5486 5492 5498 5504 5511 5517 5524 5531 5539 5546 5553 5561 5567 5574 5581 5588 5594 5600 5606 5610
5468 5466 5463 5461 5460 5458 5454 5452 5451 5450 5449 5448 5448 5448 5449 5450 5451 5453 5455 5457 5459 5462 5466 5470 5474 5480 5487 5493 5499 5506 5513 5520 5527 5534 5542 5549 5555 5563 5570 5576 5583 5589 5594 5599
5458 5455 5452 5450 5450 5447 5444 5442 5440 5439 5439 5439 5439 5439 5439 5440 5441 5443 5445 5447 5449 5452 5455 5459 5464 5469 5475 5482 5488 5495 5501 5508 5516 5523 5530 5537 5544 5551 5558 5565 5571 5578 5583 5588
5448 5444 5441 5439 5439 5436 5435 5432 5431 5430 5429 5428 5429 5429 5429 5430 5431 5433 5434 5436 5439 5441 5445 5448 5453 5458 5464 5470 5477 5483 5490 5497 5504 5511 5518 5525 5532 5540 5547 5554 5561 5567 5573 5578
5438 5434 5431 5430 5429 5426 5425 5423 5421 5420 5419 5419 5419 5419 5419 5420 5420 5422 5424 5426 5428 5431 5434 5437 5442 5447 5453 5459 5465 5472 5479 5486 5493 5500 5507 5514 5521 5529 5536 5543 5550 5555 5562 5567